User: anonymous   Login
Location: Unspecified
(17.6330°N, 0.0000°E)
Time: 10:44:09
(UTC+00:00)
Language:

Max Valier Satellite - Orbit

View from above orbital plane
View from above orbital plane
View from above satellite
View from above satellite

Ground track
Ground track

The orbit data is extracted from the following two-line orbital elements,

1 42778U 17036P   19201.74320259 +.00000500 +00000-0 +24829-4 0  9994
2 42778 097.3522 258.7008 0014121 109.6912 250.5850 15.22050217115114
Epoch (UTC): 20 July 2019 17:50:12
Eccentricity: 0.0014121
inclination: 97.3522°
perigee height: 490 km
apogee height: 509 km
right ascension of ascending node: 258.7008°
argument of perigee: 109.6912°
revolutions per day: 15.22050217
mean anomaly at epoch: 250.5850°
orbit number at epoch: 11511

The dashed part of the orbit path shows where the satellite is in the earth's shadow,  

DLR